STARLINK-30521, 57966

Orbit data source: Space-Track

STARLINK-30521, 57966 is a payload satellite owned by SpaceX/Seattle (US) in LEO that was launched on Sat, 30 Sep 2023 UTC via an FALCON 9 launch vehicle from the Air Force Eastern Test Range (AFETR). Payload-class satellites include a variety of spacecraft equipped with specific instruments for various scientific and technological missions. These include communications satellites like Starlink; space stations such as the ISS; scientific satellites like the Hubble; Earth observation satellites from companies like Planet Labs, Umbra, and HawkEye 360; GPS; miniature CubeSats for education and research; and military/defense satellites.

Loading next visibility...
Identifier
57966, 2023-151C
Orbit
LEO
Country
Flag of USUS
Related business
Manufacturer
SpaceX/Seattle
Mission
Operational Commercial Communications
Bus & Motor
STARLINK V2M, Unknown motor
Mass
730 kg wet, ~700 kg dry
Launch date (UTC)
2023-09-30 (3 years ago)
Launch vehicle
FALCON 9
Launch site
Air Force Eastern Test Range (AFETR)
Object type
Payload
Rocket body
Debris
Shape & HBR
Box + 2 Pan, 17.7 m
Radar Cross Section
33.884 m², Large (>1 m²)

Expand to show TLE details & history
Last TLE update: 12 hours ago

TLE from 12 hours ago
0 STARLINK-30521
1 57966U 23151C   26192.88904687  .00001609  00000-0  68014-4 0  9994
2 57966  43.0062 354.3796 0001561 272.6622  87.4051 15.27570330154768
Epoch: 2026-07-11T21:20Z
TLE epoch observation values (Epoch: 2026-07-11T21:20:13.649Z)
Latitude
-0.00002°
Longitude
104.52691°
Altitude
482.806 km
Speed
7.626 km/s
True Right ascension
23h 37m 31s
True Declination
0° 00' 00"
Sunlit
Object was in full shadow at epoch
Visualization orbit readout
Latitude
Unknown
Longitude
Unknown
Altitude
Unknown
Speed
Unknown
Apparent Right ascension
Unknown
Apparent Declination
Unknown
Sunlit
N/A
Visualization observer readout
Local Sidereal Time
21:57:24
Azimuth
Unknown
Elevation
Unknown
Doppler factor
Unknown
Orbital elements
Apogee altitude
486.094 km
Perigee altitude
483.951 km
Semi-major axis
6,863.159 km
Eccentricity
0.00016
Inclination
43.0062°
RAAN
354.3796°
Arg. of periapsis
272.6622°
True anomaly
87.42297°
Mean anomaly
87.4051°
Eccentric anomaly
87.41403°
Mean motion
3.81731 °/min
Orbital period
94.31 mins
BSTAR
0.000068014
Loading maneuver chart data...
Computing Atmospheric mass density...
Loading historical data...
Loading historical data...
Loading historical data...
Loading historical data...
Loading historical data...
Loading historical data...
Loading historical data...

Documentation

Showing up to 5 results
|